Погода Камень-на-Оби

Погода Камень-на-Оби : погода сейчас, прогноз погоды и архив. Всё, что Вы хотите узнать о погоде Камень-на-Оби!

Хотите узнать прогноз погоды Камень-на-Оби? Тогда Вам сюда: Погода Камень-на-Оби

Поиск расширенной информации на нашем сайте:

Другие новости

Новости СМИ2

Главная страница сайта

Новости сайта

03.07.2017

Напоминаем, что на нашем специализированном сайте Метеоцентр.Азия вы можете получить высокодетализированные автоматические прогнозы погоды по пунктам России, СНГ и мира в авиационном формате (включающие направление и скорость ветра, видимость, явления погоды, количество и форму облачности, нижнюю и верхнюю границу облачности).


Погода Камень-на-Оби - сегодня

Время (UTC), дата Ветер
(°,м/с) 
Видим.   Явления Облачность Т
(°С)
Тd
(°С)
f(%) Тe
(°С)
Pmin
(гПа)
dP
(гПа)
Po
(мм)
O2
(г/м3)
Тmin Tmax R s Состояние
почвы
09 22.11.17 230 (ЮЗ) 10 км    10/0 средняя 
[Ac und]
-2.7 -7.6 69 -5  1036.4  -0.2  765  312           
12 22.11.17 190 (Ю) 10 км    4/0 средняя 
[Ac trans]
-5.7 -8.9 78 -7  1036.5  -0.2  765  316    -2.5       
15 22.11.17 150 (ЮВ) 10 км    ясно 
-7 -9.4 83 -8  1035.9  -0.6  764  317           
18 22.11.17 160 (Ю) 10 км    ясно 
-8.2 -10.7 82 -10  1035.3  -0.6  764  318           
21 22.11.17 160 (Ю) 10 км    ясно 
-9.7 -11.8 85 -10  1034.8  -0.7  763  320           
00 23.11.17 150 (ЮВ) 10 км    ясно 
-11.1 -12.6 89 -11  1033.9  -0.9  762  321  -11.5      равномерный
сухой снег
100% 
03 23.11.17 150 (ЮВ) 4000 м  дымка  4/0 верхняя 
[Cs]
-10 -11.6 88 -12  1034.2  0.3  763  320  -13.6         
06 23.11.17 110 (В) 4000 м  дымка  3/0 верхняя 
[Cs]
-4.5 -8.4 74 -6  1033.3  -0.5  762  313           
09 23.11.17 160 (Ю) 10 км    3/3 600 м кучево-дожд. 
[Cb cap]
-1.9 -8 63 -3  1032.8  -0.3  762  310           
12 23.11.17 160 (Ю) 10 км    ясно 
-7 -9.5 82 -8  1032.9  -0.3  762  316    -1.8       
15 23.11.17 230 (ЮЗ) 10 км    ясно 
-13 -14.9 86 -13  1033.1  -0.1  762  324           
18 23.11.17 050 (СВ) 10 км    ясно 
-14 -15.9 85 -14  1033  -0.2  762  325           
21 23.11.17 220 (ЮЗ) 10 км    ясно 
-14.6 -16.7 84 -15  1032.8  -0.3  761  326           
00 24.11.17 тихо ()   10 км    ясно 
-14.7 -16.8 84 -15  1033  0.2  762  326  -15.1      равномерный
сухой снег
100% 
03 24.11.17 060 (СВ) 10 км    ясно 
-14.5 -16.6 84 -15  1032.6  -0.3  761  325           
06 24.11.17 100 (В) 2000 м  дымка  ясно 
-4.7 -8.5 75 -4  1031.6  -0.3  761  313           
09 24.11.17 160 (Ю) 10 км    ясно 
-1.7 -7.8 63 -3  1030.8  -0.7  761  309           
12 24.11.17 140 (ЮВ) 4000 м  дымка  ясно 
-8.4 -10.3 86 -8  1030.1  -1.1  760  317    -1.5       
15 24.11.17 тихо ()   4000 м  дымка  ясно 
-12.5 -14.2 87 -13  1029.2  -1.2  759  322           
18 24.11.17 070 (В) 4000 м    ясно 
-13.2 -15 86 -13  1027.6  -1.6  758  322           
21 24.11.17 130 (ЮВ) 4000 м  дымка  ясно 
-13.7 -15.4 87 -16  1025.4  -2.1  756  322           
00 25.11.17 150 (ЮВ) 4000 м  дымка  ясно 
-9.4 -11.4 85 -11  1022.8  -2.3  754  316  -14      равномерный
сухой снег
100% 
03 25.11.17 140 (ЮВ) 4000 м  дымка  ясно 
-11.5 -13.1 88 -13  1021  -2  753  318           
06 25.11.17 140 (ЮВ) 4000 м  дымка  ясно 
-5.4 -8.5 79 -7  1018.8  -1.7  752  310           
09 25.11.17 210 (ЮЗ) 10 км    3/0 верхняя 
[Ci fib]
-1 -9.5 52 -3  1016.4  -2.1  750  304           
Время (UTC), дата Ветер
(°,м/с) 
Видим.   Явления Облачность Т
(°С)
Тd
(°С)
f(%) Тe
(°С)
Pmin
(гПа)
dP
(гПа)
Po
(мм)
O2
(г/м3)
Тmin Tmax R s Состояние
почвы

Для получения пояснительной информации подведите курсор к названию столбца.

ПОГОДА Камень-на-Оби - архив

Всё, что Вы хотите узнать о погоде Камень-на-Оби - удобно и подробно!

Выберите нужную дату (начиная с 1 января 2015* года) и нажмите кнопку "Найти".
Будут отображены архивные сводки погоды по пункту Камень-на-Оби, начиная с указанной даты.


Отображать данные в формате CSV (для использования в таблицах Excel)


Внимание! Наш архив погоды предназначен исключительно для личного некоммерческого использования в познавательных целях. Если Вам необходимы официальные справки о состоянии погоды (для производственных, юридических, коммерческих и т.п. целей), обращайтесь в органы Росгидромета.

*Примечание: данная дата относится к архиву по метеостанциям СССР (Россия, СНГ, Балтия).
Архив по метеостанциям Зарубежной Европы и Азии (кроме Китая) хранится 10 дней, по другим регионам земного шара (Китай, Африка, Америка, Австралия, Океания) - 1 день.

Камень-на-Оби - район местоположения метеостанции


Название, широта, долгота, высота метеостанции:
Камень-на-Оби 53.8°ш. 81.3°д. 129 м над ур. моря [Российская Федерация]

Дополнительная информация

В oтличие oт бoльшинства пoгoдных сайтoв мы публикуем пoдрoбную метеoинфoрмацию в детальнoм прoфессиoнальнoм фoрмате.

Характеристики температуры и влажнoсти вoздуха измеряются на высoте 2 м в тени вдали oт зданий и деревьев.
Скoрoсть ветра измеряется на высoте 10 м (на урoвне рoста челoвека скoрoсть ветра ниже в 1.5-2 раза). Если метеoстанция нахoдится в гoрoде или в лесу, тo скoрoсть ветра занижена на 2-4 м/с пo сравнению с oткрытым местoм. Скoрoсть ветра над акватoриями крупных рек и oзёр, а также на вершинах хoлмoв на 2-5 м/с выше, чем в oбычных услoвиях.
Атмoсфернoе давление в разных тoчках местнoсти мoжет значительнo oтличаться oт давления на метеoстанции, в зависимoсти oт услoвий рельефа (при пoдъёме на 10 м давление пoнижается примернo на 1 мм рт.ст.).